User: anonymous
Location: Caltech
(34.1382°N, 118.1253°W)
Time: 10:44:23
(UTC-07:00)
Language:

GPS 2-04 Rocket1 - Orbit

View from above orbital plane
View from above orbital plane
View from above satellite
View from above satellite

Ground track
Ground track

The orbit data is extracted from the following two-line orbital elements,

1 20303U 89085B   14205.11002198  .00001370  00000-0  67689-4 0  8307
2 20303 035.6342 124.0397 0141671 240.0621 247.2307 15.09923194339478
Epoch (UTC): 24 July 2014 02:38:25
Eccentricity: 0.0141671
inclination: 35.6342°
perigee height: 438 km
apogee height: 634 km
right ascension of ascending node: 124.0397°
argument of perigee: 240.0621°
revolutions per day: 15.09923194
mean anomaly at epoch: 247.2307°
orbit number at epoch: 33947

The dashed part of the orbit path shows where the satellite is in the earth's shadow,  

DLR